DELTA 1 DEB, 7053

Orbit data source: Space-Track

DELTA 1 DEB, 7053 is space debris in SSO originally from a launch on Tue, 06 Nov 1973 UTC launched from the Air Force Western Test Range (AFWTR). Debris objects in space refer to the collection of defunct objects orbiting the Earth. Examples of debris include non-operational satellites, rocket bodies, and fragments generated from explosions, collisions, or faulty payload assembly.

Loading next visibility...
Identifier
7053, 1973-086AV
Orbit
SSO
Country
Flag of USUS
Related business
Manufacturer
Unknown
Mission
Spacecraft
Bus & Motor
Unknown
Mass
Unknown
Launch date (UTC)
1973-11-06 (52 years ago)
Launch vehicle
Unknown
Launch site
Air Force Western Test Range (AFWTR)
Object type
Payload
Rocket body
Debris
Shape & HBR
Unknown shape, 0.2 m
Radar Cross Section
Small (<0.1 m²)

Expand to show TLE details & history
Last TLE update: 12 hours ago

TLE from 12 hours ago
0 DELTA 1 DEB
1 07053U 73086AV  25292.19165360  .00000122  00000-0  11076-2 0  9992
2 07053 101.7688   6.8374 0044101  46.2581  13.3225 12.48562403364163
Epoch: 2025-10-19T04:35Z
TLE epoch observation values (Epoch: 2025-10-19T04:35:58.871Z)
Latitude
57.78962°
Longitude
-109.28274°
Altitude
1,446.364 km
Speed
7.159 km/s
True Right ascension
23h 10m 29s
True Declination
57° 38' 53"
Sunlit
Object was in daylight at epoch
Visualization orbit readout
Latitude
Unknown
Longitude
Unknown
Altitude
Unknown
Speed
Unknown
Apparent Right ascension
Unknown
Apparent Declination
Unknown
Sunlit
N/A
Visualization observer readout
Local Sidereal Time
10:59:06
Azimuth
Unknown
Elevation
Unknown
Doppler factor
Unknown
Orbital elements
Apogee altitude
1,502.666 km
Perigee altitude
1,433.461 km
Semi-major axis
7,846.201 km
Eccentricity
0.00441
Inclination
101.7688°
RAAN
6.8374°
Arg. of periapsis
46.2581°
True anomaly
13.43958°
Mean anomaly
13.3225°
Eccentric anomaly
13.38098°
Mean motion
3.12287 °/min
Orbital period
115.28 mins
BSTAR
0.0011076
Loading maneuver chart data...
Computing Atmospheric mass density...
Loading historical data...
Loading historical data...
Loading historical data...
Loading historical data...
Loading historical data...
Loading historical data...
Loading historical data...

Documentation

Showing up to 5 results
|